Location: Melizzano
(41.1500°N, 14.5000°E)
Time: 12:35:19
(UTC+00:00)

Nadezhda 3 Rocket - Pass Details

Date: 11 May 2021
Orbit: 956 x 1000 km, 82.9° (Epoch: 19 June)

Event Time Altitude Azimuth Distance (km) Brightness Sun altitude
Exits shadow 22:35:12 59° 75° (ENE) 1,121 4.2 -30.5°
Drops below altitude 10° 22:40:55 10° 15° (NNE) 2,723 7.1 -30.6°
Sets 22:43:26 0° 12° (NNE) 3,668 8.1 -30.6°
